| time (UTC) | temp F | wind direction | speed knots | gust knots | rain 1hr in | rain 24hr in | rain mn in | humidity % | barometer mb |
| 20260507163303 | 62 | 339 | 9.6 | 14.8 | 0.00 | 0.00 | 0.00 | 40 | 1008.4 |
| 20260507162307 | 62 | 351 | 11.3 | 14.8 | 0.00 | 0.00 | 0.00 | 41 | 1008.5 |
| 20260507161804 | 61 | 354 | 8.7 | 13.0 | 0.00 | 0.00 | 0.00 | 42 | 1008.5 |
| 20260507154803 | 60 | 300 | 10.4 | 17.4 | 0.00 | 0.00 | 0.00 | 44 | 1008.8 |
| 20260507154304 | 60 | 325 | 7.8 | 18.2 | 0.00 | 0.00 | 0.00 | 44 | 1008.8 |
| 20260507153804 | 60 | 288 | 13.0 | 19.1 | 0.00 | 0.00 | 0.00 | 43 | 1008.8 |
| 20260507153304 | 60 | 297 | 11.3 | 14.8 | 0.00 | 0.00 | 0.00 | 44 | 1008.8 |
| 20260507152804 | 60 | 316 | 8.7 | 15.6 | 0.00 | 0.00 | 0.00 | 47 | 1008.8 |
| 20260507151803 | 58 | 312 | 8.7 | 14.8 | 0.00 | 0.00 | 0.00 | 49 | 1008.9 |
| 20260507151304 | 56 | 281 | 13.0 | 13.0 | 0.00 | 0.00 | 0.00 | 54 | 1008.6 |
| 20260507150304 | 56 | 291 | 12.2 | 20.9 | 0.00 | 0.00 | 0.00 | 55 | 1008.6 |
| 20260507145804 | 56 | 290 | 12.2 | 17.4 | 0.00 | 0.00 | 0.00 | 59 | 1008.5 |
| 20260507144804 | 53 | 279 | 10.4 | 14.8 | 0.00 | 0.00 | 0.00 | 63 | 1008.5 |
| 20260507144304 | 53 | 269 | 10.4 | 13.0 | 0.00 | 0.00 | 0.00 | 63 | 1008.4 |
| 20260507143803 | 53 | 274 | 9.6 | 13.9 | 0.00 | 0.00 | 0.00 | 63 | 1008.3 |
| 20260507142803 | 53 | 278 | 8.7 | 13.0 | 0.00 | 0.00 | 0.00 | 64 | 1008.3 |
| 20260507141804 | 51 | 277 | 8.7 | 12.2 | 0.00 | 0.00 | 0.00 | 66 | 1008.1 |
| 20260507141304 | 51 | 271 | 8.7 | 14.8 | 0.00 | 0.00 | 0.00 | 66 | 1008.1 |
| 20260507140804 | 51 | 267 | 10.4 | 15.6 | 0.00 | 0.00 | 0.00 | 67 | 1008.2 |
| 20260507135804 | 51 | 269 | 10.4 | 14.8 | 0.00 | 0.00 | 0.00 | 67 | 1008.0 |
| 20260507133803 | 50 | 269 | 7.8 | 13.9 | 0.00 | 0.00 | 0.00 | 69 | 1008.0 |
| 20260507133304 | 50 | 265 | 7.8 | 11.3 | 0.00 | 0.00 | 0.00 | 69 | 1008.1 |
| 20260507132804 | 50 | 281 | 8.7 | 13.9 | 0.00 | 0.00 | 0.00 | 69 | 1008.1 |
| 20260507132307 | 50 | 274 | 8.7 | 14.8 | 0.00 | 0.00 | 0.00 | 70 | 1008.1 |
| 20260507131804 | 50 | 276 | 9.6 | 12.2 | 0.00 | 0.00 | 0.00 | 70 | 1008.0 |
| 20260507131304 | 50 | 265 | 8.7 | 12.2 | 0.00 | 0.00 | 0.00 | 70 | 1008.0 |
| 20260507130304 | 49 | 269 | 7.8 | 11.3 | 0.00 | 0.00 | 0.00 | 72 | 1008.0 |
| 20260507125803 | 49 | 263 | 8.7 | 10.4 | 0.00 | 0.00 | 0.00 | 73 | 1007.8 |
| 20260507125306 | 49 | 265 | 7.0 | 10.4 | 0.00 | 0.00 | 0.00 | 73 | 1007.7 |
| 20260507123804 | 48 | 262 | 7.8 | 11.3 | 0.00 | 0.00 | 0.00 | 74 | 1007.8 |
| 20260507120804 | 47 | 291 | 4.3 | 7.0 | 0.00 | 0.00 | 0.00 | 74 | 1007.9 |
| 20260507120304 | 47 | 291 | 5.2 | 7.0 | 0.00 | 0.00 | 0.00 | 74 | 1007.9 |
| 20260507115804 | 47 | 282 | 7.0 | 8.7 | 0.00 | 0.00 | 0.00 | 75 | 1007.8 |
| 20260507115307 | 46 | 282 | 6.1 | 8.7 | 0.00 | 0.00 | 0.00 | 75 | 1007.7 |
| 20260507114803 | 46 | 277 | 5.2 | 6.1 | 0.00 | 0.00 | 0.00 | 74 | 1007.7 |
| 20260507111804 | 47 | 301 | 2.6 | 7.0 | 0.00 | 0.00 | 0.00 | 72 | 1007.7 |
| 20260507111304 | 47 | 283 | 6.1 | 7.8 | 0.00 | 0.00 | 0.00 | 73 | 1007.7 |
| 20260507110803 | 47 | 273 | 7.0 | 8.7 | 0.00 | 0.00 | 0.00 | 73 | 1007.6 |
| 20260507110304 | 47 | 278 | 6.1 | 7.8 | 0.00 | 0.00 | 0.00 | 73 | 1007.7 |
| 20260507105306 | 46 | 285 | 6.1 | 7.8 | 0.00 | 0.00 | 0.00 | 73 | 1007.6 |
| 20260507104804 | 46 | 271 | 5.2 | 7.8 | 0.00 | 0.00 | 0.00 | 73 | 1007.6 |
| 20260507103804 | 44 | 268 | 5.2 | 7.0 | 0.00 | 0.00 | 0.00 | 72 | 1007.6 |
| 20260507103304 | 44 | 276 | 3.5 | 6.1 | 0.00 | 0.00 | 0.00 | 70 | 1007.5 |
| 20260507102804 | 44 | 278 | 2.6 | 5.2 | 0.00 | 0.00 | 0.00 | 69 | 1007.5 |
| 20260507102306 | 43 | 277 | 1.7 | 2.6 | 0.00 | 0.00 | 0.00 | 69 | 1007.6 |
| 20260507101804 | 43 | 277 | 0.9 | 1.7 | 0.00 | 0.00 | 0.00 | 67 | 1007.7 |
| 20260507101304 | 43 | 276 | 0.9 | 1.7 | 0.00 | 0.00 | 0.00 | 67 | 1007.7 |
| 20260507095803 | 43 | 275 | 1.7 | 2.6 | 0.00 | 0.00 | 0.00 | 68 | 1007.6 |
| 20260507095306 | 43 | 267 | 0.9 | 2.6 | 0.00 | 0.00 | 0.00 | 67 | 1007.6 |
| 20260507093304 | 41 | 215 | 0.0 | 1.7 | 0.00 | 0.00 | 0.00 | 62 | 1007.7 |
| 20260507092804 | 41 | 215 | 1.7 | 1.7 | 0.00 | 0.00 | 0.00 | 61 | 1007.6 |
| 20260507092307 | 41 | 215 | 0.9 | 2.6 | 0.00 | 0.00 | 0.00 | 60 | 1007.6 |
| 20260507091804 | 41 | 215 | 0.9 | 1.7 | 0.00 | 0.00 | 0.00 | 60 | 1007.6 |
| 20260507090803 | 41 | 215 | 4.3 | 5.2 | 0.00 | 0.00 | 0.00 | 60 | 1007.5 |
| 20260507090304 | 41 | 219 | 2.6 | 5.2 | 0.00 | 0.00 | 0.00 | 62 | 1007.5 |
| 20260507085803 | 40 | 227 | 4.3 | 5.2 | 0.00 | 0.00 | 0.00 | 64 | 1007.4 |
| 20260507085306 | 40 | 219 | 2.6 | 5.2 | 0.00 | 0.00 | 0.00 | 65 | 1007.4 |
| 20260507084803 | 40 | 189 | 4.3 | 5.2 | 0.00 | 0.00 | 0.00 | 65 | 1007.4 |
| 20260507083303 | 41 | 181 | 2.6 | 5.2 | 0.00 | 0.00 | 0.00 | 64 | 1007.5 |
| 20260507080304 | 43 | 158 | 2.6 | 6.1 | 0.00 | 0.00 | 0.00 | 62 | 1007.3 |
| 20260507074803 | 44 | 157 | 4.3 | 5.2 | 0.00 | 0.00 | 0.00 | 61 | 1007.2 |
| 20260507073803 | 44 | 128 | 2.6 | 2.6 | 0.00 | 0.00 | 0.00 | 58 | 1007.5 |
| 20260507072307 | 46 | 3 | 0.0 | 4.3 | 0.00 | 0.00 | 0.00 | 55 | 1007.7 |
| 20260507071805 | 46 | 158 | 4.3 | 4.3 | 0.00 | 0.00 | 0.00 | 55 | 1007.4 |
| 20260507064804 | 48 | 157 | 5.2 | 8.7 | 0.00 | 0.00 | 0.00 | 48 | 1007.6 |
| 20260507064304 | 48 | 153 | 6.1 | 10.4 | 0.00 | 0.00 | 0.00 | 47 | 1007.6 |
| 20260507062803 | 46 | 115 | 1.7 | 2.6 | 0.00 | 0.00 | 0.00 | 57 | 1007.9 |
| 20260507061803 | 47 | 104 | 1.7 | 2.6 | 0.00 | 0.00 | 0.00 | 55 | 1008.0 |
| 20260507060825 | 46 | 104 | 1.7 | 2.6 | 0.00 | 0.00 | 0.00 | 55 | 1008.0 |
| 20260507055804 | 46 | 104 | 0.9 | 2.6 | 0.00 | 0.00 | 0.00 | 59 | 1007.9 |
| 20260507055306 | 46 | 104 | 1.7 | 2.6 | 0.00 | 0.00 | 0.00 | 57 | 1007.8 |
| 20260507054804 | 46 | 104 | 0.9 | 2.6 | 0.00 | 0.00 | 0.00 | 55 | 1007.7 |
| 20260507053804 | 47 | 104 | 0.9 | 2.6 | 0.00 | 0.00 | 0.00 | 55 | 1007.7 |
| 20260507053303 | 47 | 104 | 0.9 | 1.7 | 0.00 | 0.00 | 0.00 | 55 | 1007.7 |
| 20260507051303 | 47 | 137 | 4.3 | 4.3 | 0.00 | 0.00 | 0.00 | 56 | 1007.3 |
| 20260507050304 | 48 | 137 | 1.7 | 2.6 | 0.00 | 0.00 | 0.00 | 57 | 1007.4 |
| 20260507045306 | 48 | 137 | 2.6 | 4.3 | 0.00 | 0.00 | 0.00 | 55 | 1007.1 |
| 20260507044803 | 48 | 137 | 1.7 | 2.6 | 0.00 | 0.00 | 0.00 | 55 | 1007.0 |
| 20260507044304 | 48 | 137 | 2.6 | 6.1 | 0.00 | 0.00 | 0.00 | 54 | 1007.0 |
| 20260507043304 | 49 | 138 | 4.3 | 4.3 | 0.00 | 0.00 | 0.00 | 52 | 1007.0 |
| 20260507041303 | 49 | 121 | 5.2 | 7.0 | 0.00 | 0.00 | 0.00 | 52 | 1006.9 |
| 20260507040804 | 49 | 103 | 2.6 | 5.2 | 0.00 | 0.00 | 0.00 | 53 | 1006.9 |
| 20260507040304 | 50 | 103 | 3.5 | 5.2 | 0.00 | 0.00 | 0.00 | 53 | 1006.9 |
| 20260507035803 | 50 | 103 | 2.6 | 7.0 | 0.00 | 0.00 | 0.00 | 52 | 1006.8 |
| 20260507034304 | 52 | 146 | 4.3 | 8.7 | 0.00 | 0.00 | 0.00 | 48 | 1006.5 |
| 20260507033804 | 51 | 168 | 6.1 | 10.4 | 0.00 | 0.00 | 0.00 | 47 | 1006.4 |
| 20260507033303 | 51 | 170 | 6.1 | 7.8 | 0.00 | 0.00 | 0.00 | 49 | 1006.5 |
| 20260507032306 | 52 | 162 | 3.5 | 5.2 | 0.00 | 0.00 | 0.00 | 46 | 1006.7 |
| 20260507030803 | 53 | 110 | 5.2 | 6.1 | 0.00 | 0.00 | 0.00 | 41 | 1007.0 |
| 20260507030304 | 53 | 101 | 3.5 | 5.2 | 0.00 | 0.00 | 0.00 | 41 | 1006.9 |
| 20260507025804 | 54 | 99 | 4.3 | 6.1 | 0.00 | 0.00 | 0.00 | 41 | 1006.7 |
| 20260507024803 | 54 | 98 | 1.7 | 2.6 | 0.00 | 0.00 | 0.00 | 41 | 1006.7 |
| 20260507023803 | 55 | 102 | 5.2 | 7.0 | 0.00 | 0.00 | 0.00 | 39 | 1006.4 |
| 20260507022804 | 55 | 103 | 5.2 | 7.8 | 0.00 | 0.00 | 0.00 | 39 | 1006.5 |
| 20260507021804 | 56 | 102 | 5.2 | 7.0 | 0.00 | 0.00 | 0.00 | 38 | 1006.2 |
| 20260507021303 | 56 | 105 | 3.5 | 6.1 | 0.00 | 0.00 | 0.00 | 38 | 1006.1 |
| 20260507020804 | 56 | 90 | 3.5 | 6.1 | 0.00 | 0.00 | 0.00 | 37 | 1006.2 |
| 20260507013303 | 59 | 105 | 5.2 | 7.0 | 0.00 | 0.00 | 0.00 | 33 | 1006.1 |
| 20260507012306 | 59 | 108 | 7.8 | 10.4 | 0.00 | 0.00 | 0.00 | 32 | 1005.9 |
| 20260507011804 | 60 | 110 | 6.1 | 8.7 | 0.00 | 0.00 | 0.00 | 32 | 1006.1 |
| 20260507011304 | 60 | 107 | 7.8 | 10.4 | 0.00 | 0.00 | 0.00 | 31 | 1006.1 |
| 20260507010804 | 60 | 113 | 7.0 | 10.4 | 0.00 | 0.00 | 0.00 | 32 | 1006.0 |
| 20260507010304 | 60 | 117 | 7.8 | 10.4 | 0.00 | 0.00 | 0.00 | 31 | 1006.0 |
| 20260507003304 | 60 | 100 | 5.2 | 10.4 | 0.00 | 0.00 | 0.00 | 31 | 1005.8 |
| 20260507001304 | 61 | 111 | 8.7 | 13.0 | 0.00 | 0.00 | 0.00 | 30 | 1005.8 |
| 20260507000804 | 61 | 107 | 8.7 | 12.2 | 0.00 | 0.00 | 0.00 | 29 | 1005.9 |
| 20260507000306 | 61 | 91 | 3.5 | 7.0 | 0.00 | 0.00 | 0.00 | 29 | 1005.9 |
| 20260506235804 | 61 | 138 | 4.3 | 10.4 | 0.00 | 0.00 | 0.00 | 29 | 1005.8 |
| 20260506234305 | 61 | 117 | 4.3 | 10.4 | 0.00 | 0.00 | 0.00 | 29 | 1005.7 |
| 20260506233803 | 61 | 96 | 4.3 | 8.7 | 0.00 | 0.00 | 0.00 | 29 | 1005.8 |
| 20260506233304 | 61 | 111 | 8.7 | 11.3 | 0.00 | 0.00 | 0.00 | 29 | 1005.8 |
| 20260506232306 | 62 | 80 | 3.5 | 8.7 | 0.00 | 0.00 | 0.00 | 29 | 1006.0 |
| 20260506230304 | 61 | 113 | 6.1 | 8.7 | 0.00 | 0.00 | 0.00 | 29 | 1006.4 |
| 20260506225305 | 62 | 118 | 7.8 | 11.3 | 0.00 | 0.00 | 0.00 | 29 | 1006.3 |
| 20260506222803 | 61 | 109 | 4.3 | 10.4 | 0.00 | 0.00 | 0.00 | 28 | 1006.6 |
| 20260506221303 | 63 | 139 | 2.6 | 11.3 | 0.00 | 0.00 | 0.00 | 27 | 1006.7 |
| 20260506220803 | 63 | 134 | 5.2 | 8.7 | 0.00 | 0.00 | 0.00 | 27 | 1006.7 |
| 20260506214804 | 63 | 147 | 3.5 | 7.0 | 0.00 | 0.00 | 0.00 | 27 | 1007.0 |
| 20260506214304 | 62 | 160 | 5.2 | 7.8 | 0.00 | 0.00 | 0.00 | 28 | 1007.2 |
| 20260506212803 | 62 | 170 | 6.1 | 12.2 | 0.00 | 0.00 | 0.00 | 28 | 1007.3 |
| 20260506205306 | 60 | 161 | 6.1 | 15.6 | 0.00 | 0.00 | 0.00 | 28 | 1007.6 |
| 20260506204804 | 60 | 158 | 7.8 | 13.0 | 0.00 | 0.00 | 0.00 | 29 | 1007.6 |
| 20260506204304 | 60 | 108 | 7.8 | 19.1 | 0.00 | 0.00 | 0.00 | 28 | 1007.7 |
| 20260506202804 | 60 | 157 | 8.7 | 17.4 | 0.00 | 0.00 | 0.00 | 28 | 1007.8 |
| 20260506201304 | 60 | 149 | 7.8 | 11.3 | 0.00 | 0.00 | 0.00 | 29 | 1008.1 |
| 20260506200804 | 59 | 101 | 6.1 | 8.7 | 0.00 | 0.00 | 0.00 | 28 | 1008.1 |
| 20260506200304 | 59 | 158 | 8.7 | 13.0 | 0.00 | 0.00 | 0.00 | 29 | 1008.1 |
| 20260506194804 | 59 | 154 | 7.0 | 12.2 | 0.00 | 0.00 | 0.00 | 29 | 1008.2 |
| 20260506194304 | 59 | 167 | 6.1 | 17.4 | 0.00 | 0.00 | 0.00 | 30 | 1008.3 |
| 20260506192804 | 58 | 169 | 6.1 | 10.4 | 0.00 | 0.00 | 0.00 | 29 | 1008.4 |
| 20260506191804 | 58 | 164 | 4.3 | 12.2 | 0.00 | 0.00 | 0.00 | 31 | 1008.6 |
| 20260506185803 | 57 | 150 | 7.8 | 12.2 | 0.00 | 0.00 | 0.00 | 30 | 1008.8 |
| 20260506184804 | 56 | 154 | 8.7 | 13.0 | 0.00 | 0.00 | 0.00 | 31 | 1009.0 |
| 20260506183304 | 56 | 155 | 7.8 | 13.0 | 0.00 | 0.00 | 0.00 | 31 | 1009.2 |
| 20260506181804 | 55 | 165 | 7.0 | 11.3 | 0.00 | 0.00 | 0.00 | 34 | 1009.5 |
| 20260506180804 | 54 | 159 | 7.8 | 12.2 | 0.00 | 0.00 | 0.00 | 34 | 1009.6 |
| 20260506174804 | 54 | 164 | 8.7 | 12.2 | 0.00 | 0.00 | 0.00 | 35 | 1009.7 |
| 20260506174304 | 53 | 164 | 7.0 | 13.0 | 0.00 | 0.00 | 0.00 | 37 | 1009.8 |
| 20260506172306 | 53 | 163 | 7.8 | 12.2 | 0.00 | 0.00 | 0.00 | 37 | 1010.2 |
| 20260506171803 | 52 | 147 | 7.8 | 15.6 | 0.00 | 0.00 | 0.00 | 37 | 1010.3 |
| 20260506165804 | 51 | 151 | 6.1 | 12.2 | 0.00 | 0.00 | 0.00 | 40 | 1010.4 |